Le nostre stazioni meteo in Italia

Pubblicità
Il mio iltempo24.it
Paganella, Italia (16022): Temperatura & dewpoint: 15.04.2019 09:00:00 - 21.04.2019 09:00:00 (CEST)Paganella, Italia (16022): velocità del vento: 15.04.2019 09:00:00 - 21.04.2019 09:00:00 (CEST)Paganella, Italia (16022): direzione del vento: 15.04.2019 09:00:00 - 21.04.2019 09:00:00 (CEST)Paganella, Italia (16022): visibility: 15.04.2019 09:00:00 - 21.04.2019 09:00:00 (CEST)Paganella, Italia (16022): ore di luce: 15.04.2019 09:00:00 - 21.04.2019 09:00:00 (CEST)
Data & Tempo tt [°C] td [°C] ff [km/h] ff [kn] dd vv [km] sd [min]
21.04.2019 09:00:00 - - - - - - -
21.04.2019 08:00:00 2,6 -7,3 0 0 N 30 6
21.04.2019 07:00:00 2,2 -6,1 0 0 N 30 0
21.04.2019 06:00:00 - - - - - - -
21.04.2019 05:00:00 - - - - - - -
21.04.2019 04:00:00 2,2 -6,9 5 3 SO 25 -
21.04.2019 03:00:00 2,8 -5,8 8 4 SO 25 -
21.04.2019 02:00:00 2,8 -5,1 9 5 S 25 -
21.04.2019 01:00:00 3,3 -1,8 8 4 S 25 -
21.04.2019 00:00:00 4,0 -2,2 9 5 SSO 25 -
20.04.2019 23:00:00 4,8 -3,7 0 0 N 25 -
20.04.2019 22:00:00 5,0 -6,5 0 0 N 25 -
20.04.2019 21:00:00 5,2 -7,3 0 0 N 30 -
20.04.2019 20:00:00 6,3 -6,0 8 4 SO 40 42
20.04.2019 19:00:00 6,2 -7,1 4 2 N 40 60
20.04.2019 18:00:00 6,0 -7,2 5 3 N 40 60
20.04.2019 17:00:00 6,0 -7,9 8 4 N 40 60
20.04.2019 16:00:00 5,8 -5,5 13 7 SSO 40 60
20.04.2019 15:00:00 5,2 -6,7 11 6 S 40 60
20.04.2019 14:00:00 5,2 -5,2 4 2 S 40 60
20.04.2019 13:00:00 5,0 -5,1 0 0 N 40 60
20.04.2019 12:00:00 4,6 -4,9 0 0 N 50 60
20.04.2019 11:00:00 4,2 -5,3 0 0 N 50 60
20.04.2019 10:00:00 4,0 -4,2 8 4 N 50 60
20.04.2019 09:00:00 4,0 -2,0 8 4 N 50 24
20.04.2019 08:00:00 3,0 -3,4 5 3 N 50 0
20.04.2019 07:00:00 1,7 -4,2 0 0 N 50 0
20.04.2019 06:00:00 1,5 -4,4 0 0 N 40 -
20.04.2019 05:00:00 1,4 -4,7 8 4 SSO 30 -
20.04.2019 04:00:00 1,4 -5,1 8 4 S 20 -
20.04.2019 03:00:00 1,6 -5,1 5 3 S 20 -
20.04.2019 02:00:00 1,6 -4,3 8 4 S 20 -
20.04.2019 01:00:00 2,2 -0,6 9 5 S 20 -
20.04.2019 00:00:00 2,0 -0,9 5 3 SSO 20 -
19.04.2019 23:00:00 2,2 -1,8 8 4 SSO 20 -
19.04.2019 22:00:00 3,0 -4,5 8 4 SSO 25 -
19.04.2019 21:00:00 4,2 -6,1 4 2 N 30 -
19.04.2019 20:00:00 5,3 -5,1 5 3 N 40 42
19.04.2019 19:00:00 5,0 -5,4 5 3 SO 45 60
19.04.2019 18:00:00 5,0 -6,0 8 4 SO 45 60
19.04.2019 17:00:00 5,0 -6,0 8 4 SSE 50 60
19.04.2019 16:00:00 5,0 -6,2 8 4 SO 50 60
19.04.2019 15:00:00 4,2 -5,3 8 4 SO 45 54
19.04.2019 14:00:00 4,0 -2,6 9 5 SE 40 30
19.04.2019 13:00:00 4,0 -1,6 8 4 SSE 30 12
19.04.2019 12:00:00 3,2 -1,4 0 0 N 0,9 0
19.04.2019 11:00:00 3,0 -1,6 0 0 N 0,9 0
19.04.2019 10:00:00 2,6 -1,7 0 0 N 0,9 0
19.04.2019 09:00:00 2,0 -1,6 0 0 N 0,6 24
19.04.2019 08:00:00 1,2 -1,4 4 2 SSO 10 6
19.04.2019 07:00:00 0,0 -1,7 4 2 SSO 10 0
19.04.2019 06:00:00 -0,4 -1,8 4 2 SSO 10 -
19.04.2019 05:00:00 -0,2 -1,6 8 4 SSO 10 -
19.04.2019 04:00:00 0,0 -1,3 4 2 S 0,3 -
19.04.2019 03:00:00 0,4 -0,8 5 3 S - -
19.04.2019 02:00:00 0,4 -2,1 13 7 S 20 -
19.04.2019 01:00:00 0,6 -2,0 15 8 SO 20 -
19.04.2019 00:00:00 0,8 -1,1 13 7 SO 10 -
18.04.2019 23:00:00 1,0 -0,8 15 8 SSO 10 -
18.04.2019 22:00:00 1,0 -0,9 15 8 S 15 -
18.04.2019 21:00:00 1,4 -1,2 13 7 S 10 -
18.04.2019 20:00:00 1,8 -1,6 21 11 OSO 13 6
18.04.2019 19:00:00 2,7 -1,8 16 9 OSO 13 60
18.04.2019 18:00:00 3,2 -1,5 13 7 OSO 15 60
18.04.2019 17:00:00 3,6 -1,4 11 6 OSO 15 54
18.04.2019 16:00:00 3,2 -1,7 13 7 OSO 15 60
18.04.2019 15:00:00 3,6 -1,7 9 5 OSO 15 60
18.04.2019 14:00:00 4,0 -1,8 11 6 OSO 15 42
18.04.2019 13:00:00 2,2 -1,6 8 4 OSO 0,9 0
18.04.2019 12:00:00 2,0 -1,3 11 6 SO 0,9 0
18.04.2019 11:00:00 2,2 -0,6 9 5 SO 0,8 0
18.04.2019 10:00:00 1,4 -0,7 16 9 OSO 0,6 0
18.04.2019 09:00:00 0,8 -0,5 24 13 OSO 0,1 0
18.04.2019 08:00:00 0,6 -0,7 22 12 OSO 0,1 0
18.04.2019 07:00:00 0,6 -1,3 26 14 SO 10 0
18.04.2019 06:00:00 0,8 -2,6 22 12 SO 20 -
18.04.2019 05:00:00 0,8 -2,8 24 13 SSO 20 -
18.04.2019 04:00:00 1,0 -3,7 18 10 SSO 20 -
18.04.2019 03:00:00 1,0 -1,9 13 7 SSO 25 -
18.04.2019 02:00:00 1,0 -1,2 11 6 SSO 30 -
18.04.2019 01:00:00 1,3 -1,9 9 5 SSO 30 -
18.04.2019 00:00:00 1,6 -2,4 9 5 SSO 30 -
17.04.2019 23:00:00 2,0 -2,3 8 4 SSO 30 -
17.04.2019 22:00:00 2,6 -5,1 5 3 SE 30 -
17.04.2019 21:00:00 3,0 -5,6 8 4 SO 20 0
17.04.2019 20:00:00 3,6 -4,6 5 3 S 30 6
17.04.2019 19:00:00 3,4 -3,8 5 3 OSO 30 42
17.04.2019 18:00:00 3,8 -3,7 9 5 OSO 30 24
17.04.2019 17:00:00 4,6 -3,9 9 5 OSO 40 48
17.04.2019 16:00:00 4,0 -4,7 5 3 SSE 40 42
17.04.2019 15:00:00 3,6 -4,1 8 4 O 40 24
17.04.2019 14:00:00 3,2 -4,5 0 0 N 40 12
17.04.2019 13:00:00 3,0 -4,4 0 0 N 40 42
17.04.2019 12:00:00 2,4 -8,0 0 0 N 40 48
17.04.2019 11:00:00 2,5 -6,9 0 0 N 40 60
17.04.2019 10:00:00 1,0 -5,9 0 0 N 30 60
17.04.2019 09:00:00 1,0 -5,9 5 3 N 30 60
17.04.2019 08:00:00 0,4 -5,6 8 4 N 30 18
17.04.2019 07:00:00 -0,8 -4,5 5 3 N 20 0
17.04.2019 06:00:00 -1,0 -4,7 8 4 N 20 -
17.04.2019 05:00:00 -0,8 -4,8 8 4 N 15 -
17.04.2019 04:00:00 0,0 -5,6 9 5 N 15 -
17.04.2019 03:00:00 0,0 -5,0 4 2 N 20 -
17.04.2019 02:00:00 0,0 -4,3 5 3 N 20 -
17.04.2019 01:00:00 0,0 -4,3 0 0 N 20 -
17.04.2019 00:00:00 0,0 -4,8 5 3 NNO 20 -
16.04.2019 23:00:00 0,2 -5,2 4 2 N 20 -
16.04.2019 22:00:00 0,4 -5,4 4 2 N 20 -
16.04.2019 21:00:00 0,8 -8,2 0 0 N 15 -
16.04.2019 20:00:00 1,8 -5,8 0 0 N 20 0
16.04.2019 19:00:00 1,6 -5,1 5 3 OSO 20 6
16.04.2019 18:00:00 2,0 -4,5 5 3 OSO 20 54
16.04.2019 17:00:00 1,8 -2,7 4 2 SO 20 54
16.04.2019 16:00:00 1,8 -3,1 4 2 SO 20 0
16.04.2019 15:00:00 2,0 -3,1 5 3 OSO 20 6
16.04.2019 14:00:00 0,8 -3,1 15 8 SO 15 0
16.04.2019 13:00:00 0,8 -2,9 16 9 SO 0,9 0
16.04.2019 12:00:00 0,4 -2,3 16 9 SO 0,6 0
16.04.2019 11:00:00 -0,4 -2,5 15 8 SSO 0,1 0
16.04.2019 10:00:00 -1,0 -3,1 24 13 SSO 0,6 12
16.04.2019 09:00:00 -1,4 -3,6 21 11 SO 10 18
16.04.2019 08:00:00 -2,0 -4,3 24 13 SO 30 6
16.04.2019 07:00:00 -2,3 -4,6 22 12 SSO 30 0
16.04.2019 06:00:00 -2,2 -5,0 29 16 SO 30 -
16.04.2019 05:00:00 -2,0 -4,5 26 14 SSO 25 -
16.04.2019 04:00:00 -1,8 -4,0 29 16 SSO 25 -
16.04.2019 03:00:00 -1,6 -2,4 22 12 SSO 25 -
16.04.2019 02:00:00 -1,2 -2,9 16 9 SSO 25 -
16.04.2019 01:00:00 -1,0 -3,1 16 9 SSO 50 -
16.04.2019 00:00:00 -1,0 -4,0 15 8 SSO 50 -
15.04.2019 23:00:00 -0,9 -4,1 15 8 SSO 50 -
15.04.2019 22:00:00 -0,3 -4,5 11 6 SSO 50 -
15.04.2019 21:00:00 -0,2 -3,4 11 6 SSO 50 -
15.04.2019 20:00:00 0,2 -3,2 13 7 SSO 50 36
15.04.2019 19:00:00 0,8 -2,6 11 6 SO 50 60
15.04.2019 18:00:00 1,2 -1,9 11 6 SO 50 36
15.04.2019 17:00:00 1,5 -2,3 15 8 SO 40 18
15.04.2019 16:00:00 1,9 -2,2 11 6 SO 50 0
15.04.2019 15:00:00 2,0 -2,5 4 2 N 70 12
15.04.2019 14:00:00 1,6 -2,9 4 2 N 70 30
15.04.2019 13:00:00 0,8 -2,9 9 5 N 70 0
15.04.2019 12:00:00 -0,8 -4,5 8 4 NNE 70 48
15.04.2019 11:00:00 -1,6 -5,6 5 3 N 70 54
15.04.2019 10:00:00 -2,0 -4,7 4 2 N 70 60
15.04.2019 09:00:00 -3,0 -5,8 11 6 N 70 48

tt = Temperatura
td = dewpoint
ff = velocità del vento
dd = direzione del vento
vv = visibility
sd = ore di luce

Stazioni seguenti

WeatherPro
AMSI
MeteoEarth